This demonstration page uses our WeatherBlox Daily Observations layout. Learn more.

Left ArrowRight Arrow

41.86663, -103.66717

Hourly Observations for April 21, 2017

Temp ( °F °C ) Dew Point ( °F °C ) Humidity (%) Winds ( mph kmh ) Pressure ( in mb ) Visibility ( mi km ) Precip ( " mm )
12:53 am 00:53 Cloudy 52 11.1 26 -3.3 37 37 SE 16 26 29.99 1016 10 16.0934 N/A
1:53 am 01:53 Cloudy 51 10.6 29 -1.7 43 43 SSE 16 26 29.98 1015 10 16.0934 N/A
2:53 am 02:53 Cloudy 48 8.9 36 2.2 63 63 ESE 14 22 29.96 1015 10 16.0934 N/A
3:53 am 03:53 Cloudy 47 8.3 37 2.8 69 69 SE 12 19 29.97 1015 10 16.0934 N/A
4:53 am 04:53 Cloudy with Light Rain 45 7.2 39 3.9 80 80 ESE 13 20 29.97 1015 10 16.0934 N/A
5:53 am 05:53 Cloudy with Light Rain 45 7.2 39 3.9 80 80 SSE 14 22 29.96 1015 10 16.0934 0.02 0.508
6:53 am 06:53 Cloudy with Light Rain 45 7.2 39 3.9 80 80 SE 12 19 29.98 1015 10 16.0934 0.01 0.254
7:46 am 07:46 Cloudy 45 7.2 39 3.9 80 80 SE 10 17 30.03 1017 10 16.0934 N/A
7:53 am 07:53 Cloudy 45 7.2 40 4.4 83 83 SE 10 17 29.98 1015 10 16.0934 N/A
8:53 am 08:53 Cloudy 46 7.8 40 4.4 79 79 ESE 14 22 30.01 1016 10 16.0934 N/A
9:53 am 09:53 Cloudy 46 7.8 40 4.4 79 79 ESE 14 22 30.04 1017 10 16.0934 N/A
10:53 am 10:53 Cloudy 47 8.3 40 4.4 77 77 SE 13 20 30.06 1018 10 16.0934 N/A
11:53 am 11:53 Cloudy 49 9.4 40 4.4 71 71 SE 9 15 30.07 1018 10 16.0934 N/A
12:24 pm 12:24 Cloudy with Light Rain 48 9 43 6 82 82 ESE 13 20 30.09 1019 9 14.48406 N/A
12:33 pm 12:33 Cloudy with Light Rain 47 8.3 42 5.6 83 83 ESE 16 26 30.12 1020 6 9.65604 N/A
12:53 pm 12:53 Cloudy with Light Rain 47 8.3 43 6.1 86 86 ESE 16 26 30.09 1019 9 14.48406 N/A
1:19 pm 13:19 Cloudy 46 7.8 42 5.6 86 86 ESE 15 24 30.12 1020 10 16.0934 N/A
1:53 pm 13:53 Cloudy 47 8.3 41 5 80 80 SE 13 20 30.11 1020 10 16.0934 N/A
2:29 pm 14:29 Cloudy 48 8.9 40 4.4 74 74 SSE 9 15 30.12 1020 10 16.0934 N/A
2:53 pm 14:53 Cloudy 48 8.9 40 4.4 74 74 S 10 17 30.12 1020 10 16.0934 N/A
3:53 pm 15:53 Cloudy 50 10 40 4.4 68 68 SE 8 13 30.11 1020 10 16.0934 N/A
4:53 pm 16:53 Cloudy 49 9.4 39 3.9 69 69 S 10 17 30.14 1021 10 16.0934 N/A
5:05 pm 17:05 Cloudy with Light Rain 47 8.3 40 4.4 77 77 SW 10 17 30.12 1020 10 16.0934 N/A
5:22 pm 17:22 Cloudy 46 8 39 4 76 76 SW 8 13 30.12 1020 10 16.0934 N/A
5:53 pm 17:53 Cloudy 47 8.3 40 4.4 77 77 SSW 6 9 30.16 1021 10 16.0934 N/A
6:53 pm 18:53 Cloudy 47 8.3 40 4.4 77 77 S 3 6 30.16 1021 10 16.0934 N/A
7:53 pm 19:53 Cloudy 46 7.8 40 4.4 79 79 SSW 5 7 30.17 1022 10 16.0934 N/A
8:53 pm 20:53 Mostly Cloudy 44 6.7 38 3.3 79 79 SSW 3 6 30.19 1023 10 16.0934 N/A
9:53 pm 21:53 Cloudy 43 6.1 37 2.8 80 80 S 3 6 30.21 1023 10 16.0934 N/A
10:53 pm 22:53 Cloudy 44 6.7 37 2.8 76 76 N N/A 30.22 1023 10 16.0934 N/A
11:53 pm 23:53 Mostly Cloudy 41 5 38 3.3 89 89 N 3 6 30.23 1024 10 16.0934 N/A

Powered by AerisWeather